Weather History for New Philadelphia, OH

Change the Weather History Date:

Tuesday, October 9, 2012

  Actual Average Record
Temperature  
Mean Temperature 46 °F 55 °F  
Max Temperature 60 °F 67 °F 80 °F (1982)
Min Temperature 32 °F 43 °F 27 °F (1989)
Degree Days  
Heating Degree Days 19 11  
Month to date heating degree days 91 84  
Since 1 July heating degree days 233 190  
Cooling Degree Days 0 1  
Month to date cooling degree days 0 9  
Year to date cooling degree days 975 697  
Moisture  
Dew Point 35 °F    
Average Humidity 69    
Maximum Humidity 100    
Minimum Humidity 37    
Precipitation  
Precipitation 0.00 in 0.09 in 0.87 in (1992)
Month to date precipitation 0.81 0.78  
Year to date precipitation 23.93 30.99  
Sea Level Pressure  
Sea Level Pressure 30.16 in    
Wind  
Wind Speed 3 mph (South)    
Max Wind Speed 10 mph    
Max Gust Speed 17 mph    
Visibility 5 miles    
Events Fog    
T = Trace of Precipitation, MM = Missing Value Source: NWS Daily Summary

Daily Weather History Graph

Daily Weather History Graph

Search for Another Location

Airport:

Trip Planner

Search our weather history database for the weather conditions in past years. The results will help you decide how hot, cold, wet, or windy it might be!

Date:

Astronomy

Oct. 09, 2012 Rise Set
Actual Time 7:30 AM EDT 6:54 PM EDT
Civil Twilight 7:03 AM EDT 7:21 PM EDT
Nautical Twilight 6:31 AM EDT 7:52 PM EDT
Astronomical Twilight 6:00 AM EDT 8:24 PM EDT
Moon 1:04 AM EDT (10/9) 3:21 PM EDT (10/9)
Length of Visible Light 12h 17m
Length of Day
11h 23m
Last Quarter, 37% of the Moon is Illuminated
Oct 9
Last Quarter
Oct 15
New
Oct 21
First Quarter
Oct 29
Full
Nov 6
Last Quarter

Hourly Weather History & Observations

Time (EDT) Temp. Windchill Dew Point Humidity Pressure Visibility Wind Dir Wind Speed Gust Speed Precip Events Conditions
12:53 AM 34.0 °F - 30.9 °F 89% 30.22 in 4.0 mi Calm Calm - N/A   Clear
1:03 AM 33.8 °F - 32.0 °F 93% 30.20 in 1.0 mi Calm Calm - N/A   Mist
1:10 AM 33.8 °F - 32.0 °F 93% 30.21 in 0.2 mi Calm Calm - N/A Fog Fog
1:53 AM 34.0 °F - 33.1 °F 96% 30.22 in 0.2 mi Calm Calm - N/A Fog Fog
2:25 AM 32.0 °F - 30.2 °F 93% 30.21 in 1.2 mi Calm Calm - N/A   Mostly Cloudy
2:30 AM 32.0 °F - 30.2 °F 93% 30.21 in 2.5 mi Calm Calm - N/A   Scattered Clouds
2:45 AM 33.8 °F - 30.2 °F 87% 30.21 in 1.5 mi Calm Calm - N/A   Mostly Cloudy
2:48 AM 33.8 °F - 32.0 °F 93% 30.21 in 0.8 mi Calm Calm - N/A   Mist
2:53 AM 33.1 °F - 32.0 °F 96% 30.22 in 0.2 mi Calm Calm - N/A Fog Fog
3:53 AM 34.0 °F - 33.1 °F 96% 30.21 in 0.2 mi Calm Calm - N/A Fog Fog
4:53 AM 33.1 °F - 32.0 °F 96% 30.21 in 0.2 mi Calm Calm - N/A Fog Fog
5:53 AM 33.1 °F - 32.0 °F 96% 30.22 in 0.2 mi Calm Calm - N/A Fog Fog
6:53 AM 33.1 °F - 32.0 °F 96% 30.23 in 0.2 mi Calm Calm - N/A Fog Fog
7:53 AM 33.1 °F - 32.0 °F 96% 30.23 in 0.2 mi Calm Calm - N/A Fog Fog
8:53 AM 34.0 °F - 34.0 °F 100% 30.25 in 0.2 mi Calm Calm - N/A Fog Fog
9:53 AM 36.0 °F 32.1 °F 35.1 °F 97% 30.25 in 0.2 mi ESE 4.6 mph - N/A Fog Fog
10:48 AM 39.2 °F 35.9 °F 39.2 °F 100% 30.20 in 1.2 mi Variable 4.6 mph - N/A   Overcast
10:53 AM 39.9 °F - 39.0 °F 97% 30.22 in 1.8 mi Calm Calm - N/A   Overcast
11:00 AM 39.2 °F 37.0 °F 39.2 °F 100% 30.20 in 2.5 mi Variable 3.5 mph - N/A   Overcast
11:07 AM 41.0 °F 39.0 °F 39.2 °F 93% 30.19 in 4.0 mi Variable 3.5 mph - N/A   Mostly Cloudy
11:22 AM 42.8 °F - 41.0 °F 93% 30.19 in 10.0 mi Calm Calm - N/A   Partly Cloudy
11:53 AM 48.9 °F - 39.9 °F 71% 30.19 in 10.0 mi SW 3.5 mph - N/A   Clear
12:53 PM 52.0 °F - 37.0 °F 57% 30.18 in 10.0 mi Variable 3.5 mph - N/A   Scattered Clouds
1:53 PM 55.0 °F - 36.0 °F 49% 30.13 in 10.0 mi Variable 5.8 mph - N/A   Clear
2:53 PM 57.0 °F - 34.0 °F 42% 30.10 in 10.0 mi Variable 5.8 mph - N/A   Clear
3:53 PM 59.0 °F - 34.0 °F 39% 30.08 in 10.0 mi SE 8.1 mph - N/A   Clear
4:53 PM 60.1 °F - 35.1 °F 39% 30.06 in 10.0 mi Variable 4.6 mph - N/A   Clear
5:53 PM 57.9 °F - 35.1 °F 42% 30.05 in 10.0 mi South 6.9 mph - N/A   Clear
6:53 PM 54.0 °F - 36.0 °F 51% 30.05 in 10.0 mi South 3.5 mph - N/A   Clear
7:53 PM 48.9 °F - 37.0 °F 64% 30.05 in 10.0 mi SSE 3.5 mph - N/A   Clear
8:53 PM 50.0 °F - 37.0 °F 61% 30.04 in 10.0 mi South 3.5 mph - N/A   Clear
9:53 PM 50.0 °F - 37.9 °F 63% 30.04 in 10.0 mi SSW 5.8 mph - N/A   Clear
10:53 PM 48.0 °F - 39.0 °F 71% 30.04 in 10.0 mi Calm Calm - N/A   Clear
11:53 PM 45.0 °F - 39.0 °F 80% 30.03 in 10.0 mi Calm Calm - N/A   Clear